Time,TemperatureF,DewpointF,PressureIn,WindDirection,WindDirectionDegrees,WindSpeedMPH,WindSpeedGustMPH,Humidity,HourlyPrecipIn,Conditions,Clouds,dailyrainin,SolarRadiationWatts/m^2,SoftwareType,DateUTC
2013-02-18 00:02:00,27.4,22.6,29.66,ESE,121,0.0,1.0,82,0.00,,---,0.00,0.00,VWS V14.00,2013-02-18 06:02:00,
2013-02-18 00:07:00,27.3,22.8,29.66,NE,39,0.0,5.0,83,0.00,,---,0.00,0.00,VWS V14.00,2013-02-18 06:07:00,
2013-02-18 00:12:00,27.1,22.6,29.65,SW,219,0.0,5.0,83,0.00,,---,0.00,0.00,VWS V14.00,2013-02-18 06:12:00,
2013-02-18 00:17:00,27.0,22.8,29.65,SSE,160,0.0,5.0,84,0.00,,---,0.00,0.00,VWS V14.00,2013-02-18 06:17:00,
2013-02-18 00:22:00,26.9,22.7,29.65,SSE,165,0.0,5.0,84,0.00,,---,0.00,0.00,VWS V14.00,2013-02-18 06:22:00,
2013-02-18 00:27:00,26.8,22.6,29.64,SSE,165,0.0,5.0,84,0.00,,---,0.00,0.00,VWS V14.00,2013-02-18 06:27:00,
2013-02-18 00:32:00,26.6,22.4,29.65,SSE,165,0.0,0.0,84,0.00,,---,0.00,0.00,VWS V14.00,2013-02-18 06:32:00,
2013-02-18 00:37:00,26.5,22.3,29.64,SSE,166,0.0,1.0,84,0.00,,---,0.00,0.00,VWS V14.00,2013-02-18 06:37:00,
2013-02-18 00:42:00,26.5,22.6,29.65,SW,217,0.0,1.0,85,0.00,,---,0.00,0.00,VWS V14.00,2013-02-18 06:42:00,
2013-02-18 00:48:00,26.5,22.6,29.64,SW,217,0.0,1.0,85,0.00,,---,0.00,0.00,VWS V14.00,2013-02-18 06:48:00,
2013-02-18 00:53:00,26.5,22.6,29.64,SW,217,0.0,1.0,85,0.00,,---,0.00,0.00,VWS V14.00,2013-02-18 06:53:00,
2013-02-18 00:58:00,26.4,22.5,29.64,SW,217,0.0,0.0,85,0.00,,---,0.00,0.00,VWS V14.00,2013-02-18 06:58:00,
2013-02-18 01:03:00,26.3,22.4,29.64,SW,217,0.0,1.0,85,0.00,,---,0.00,0.00,VWS V14.00,2013-02-18 07:03:00,
2013-02-18 01:08:00,26.2,22.3,29.63,SW,217,0.0,1.0,85,0.00,,---,0.00,0.00,VWS V14.00,2013-02-18 07:08:00,
2013-02-18 01:13:00,26.2,22.3,29.63,SW,217,0.0,1.0,85,0.00,,---,0.00,0.00,VWS V14.00,2013-02-18 07:13:00,
2013-02-18 01:18:00,26.1,22.2,29.62,SW,217,0.0,1.0,85,0.00,,---,0.00,0.00,VWS V14.00,2013-02-18 07:18:00,
2013-02-18 01:23:00,26.0,22.1,29.62,SW,217,0.0,1.0,85,0.00,,---,0.00,0.00,VWS V14.00,2013-02-18 07:23:00,
2013-02-18 01:28:00,25.8,21.9,29.62,SW,217,0.0,0.0,85,0.00,,---,0.00,0.00,VWS V14.00,2013-02-18 07:28:00,
2013-02-18 01:33:00,25.8,22.2,29.62,SW,217,0.0,0.0,86,0.00,,---,0.00,0.00,VWS V14.00,2013-02-18 07:33:00,
2013-02-18 01:38:00,25.8,22.2,29.61,SW,217,0.0,0.0,86,0.00,,---,0.00,0.00,VWS V14.00,2013-02-18 07:38:00,
2013-02-18 01:43:00,25.7,22.1,29.61,SW,217,0.0,1.0,86,0.00,,---,0.00,0.00,VWS V14.00,2013-02-18 07:43:00,
2013-02-18 01:48:00,25.6,22.0,29.61,SW,217,0.0,1.0,86,0.00,,---,0.00,0.00,VWS V14.00,2013-02-18 07:48:00,
2013-02-18 01:54:00,25.6,22.0,29.61,SW,217,0.0,1.0,86,0.00,,---,0.00,0.00,VWS V14.00,2013-02-18 07:54:00,
2013-02-18 01:59:00,25.6,22.3,29.60,SW,217,0.0,0.0,87,0.00,,---,0.00,0.00,VWS V14.00,2013-02-18 07:59:00,
2013-02-18 02:04:00,25.5,22.2,29.60,SW,217,0.0,1.0,87,0.00,,---,0.00,0.00,VWS V14.00,2013-02-18 08:04:00,
2013-02-18 02:09:00,25.4,22.1,29.60,SW,217,0.0,1.0,87,0.00,,---,0.00,0.00,VWS V14.00,2013-02-18 08:09:00,
2013-02-18 02:14:00,25.4,22.1,29.60,SW,217,0.0,1.0,87,0.00,,---,0.00,0.00,VWS V14.00,2013-02-18 08:14:00,
2013-02-18 02:19:00,25.4,22.1,29.60,SSW,211,0.0,1.0,87,0.00,,---,0.00,0.00,VWS V14.00,2013-02-18 08:19:00,
2013-02-18 02:24:00,25.4,22.1,29.60,SSW,211,0.0,1.0,87,0.00,,---,0.00,0.00,VWS V14.00,2013-02-18 08:24:00,
2013-02-18 02:29:00,25.4,22.1,29.59,SSW,211,0.0,0.0,87,0.00,,---,0.00,0.00,VWS V14.00,2013-02-18 08:29:00,
2013-02-18 02:34:00,25.5,22.5,29.60,SSW,211,0.0,1.0,88,0.00,,---,0.00,0.00,VWS V14.00,2013-02-18 08:34:00,
2013-02-18 02:39:00,25.6,22.5,29.60,South,186,0.0,1.0,88,0.00,,---,0.00,0.00,VWS V14.00,2013-02-18 08:39:00,
2013-02-18 02:44:00,25.6,22.3,29.60,South,186,0.0,1.0,87,0.00,,---,0.00,0.00,VWS V14.00,2013-02-18 08:44:00,
2013-02-18 02:49:00,25.5,22.2,29.60,South,186,0.0,1.0,87,0.00,,---,0.00,0.00,VWS V14.00,2013-02-18 08:49:00,
2013-02-18 02:54:00,25.6,22.5,29.59,South,183,0.0,2.0,88,0.00,,---,0.00,0.00,VWS V14.00,2013-02-18 08:54:00,
2013-02-18 02:59:00,25.6,22.5,29.59,South,183,0.0,0.0,88,0.00,,---,0.00,0.00,VWS V14.00,2013-02-18 08:59:00,
2013-02-18 03:04:00,25.5,22.2,29.59,SSW,196,0.0,0.0,87,0.00,,---,0.00,0.00,VWS V14.00,2013-02-18 09:04:00,
2013-02-18 03:09:00,25.5,22.5,29.59,SSW,196,0.0,0.0,88,0.00,,---,0.00,0.00,VWS V14.00,2013-02-18 09:09:00,
2013-02-18 03:14:00,25.7,22.9,29.59,SSW,196,0.0,1.0,89,0.00,,---,0.00,0.00,VWS V14.00,2013-02-18 09:14:00,
2013-02-18 03:19:00,26.0,22.9,29.59,SSW,196,0.0,1.0,88,0.00,,---,0.00,0.00,VWS V14.00,2013-02-18 09:19:00,
2013-02-18 03:24:00,26.1,23.0,29.58,SSW,196,0.0,1.0,88,0.00,,---,0.00,0.00,VWS V14.00,2013-02-18 09:24:00,
2013-02-18 03:29:00,26.2,23.1,29.58,SSW,196,0.0,0.0,88,0.00,,---,0.00,0.00,VWS V14.00,2013-02-18 09:29:00,
2013-02-18 03:34:00,26.3,23.2,29.58,SSW,196,0.0,0.0,88,0.00,,---,0.00,0.00,VWS V14.00,2013-02-18 09:34:00,
2013-02-18 03:39:00,26.3,23.2,29.58,SSW,196,0.0,0.0,88,0.00,,---,0.00,0.00,VWS V14.00,2013-02-18 09:39:00,
2013-02-18 03:45:00,26.4,23.3,29.57,SSW,196,0.0,0.0,88,0.00,,---,0.00,0.00,VWS V14.00,2013-02-18 09:45:00,
2013-02-18 03:50:00,26.6,23.5,29.57,SSW,196,0.0,1.0,88,0.00,,---,0.00,0.00,VWS V14.00,2013-02-18 09:50:00,
2013-02-18 03:55:00,26.6,23.5,29.57,SSW,196,0.0,1.0,88,0.00,,---,0.00,0.00,VWS V14.00,2013-02-18 09:55:00,
2013-02-18 04:00:00,26.7,23.6,29.57,SSW,196,0.0,0.0,88,0.00,,---,0.00,0.00,VWS V14.00,2013-02-18 10:00:00,
2013-02-18 04:05:00,26.8,23.7,29.57,SSW,196,0.0,0.0,88,0.00,,---,0.00,0.00,VWS V14.00,2013-02-18 10:05:00,
2013-02-18 04:10:00,27.0,23.9,29.55,SSW,196,0.0,0.0,88,0.00,,---,0.00,0.00,VWS V14.00,2013-02-18 10:10:00,
2013-02-18 04:15:00,27.1,24.0,29.57,SSW,196,0.0,0.0,88,0.00,,---,0.00,0.00,VWS V14.00,2013-02-18 10:15:00,
2013-02-18 04:20:00,27.1,23.8,29.56,SSW,196,0.0,0.0,87,0.00,,---,0.00,0.00,VWS V14.00,2013-02-18 10:20:00,
2013-02-18 04:25:00,27.0,23.9,29.57,SSW,196,0.0,0.0,88,0.00,,---,0.00,0.00,VWS V14.00,2013-02-18 10:25:00,
2013-02-18 04:30:00,27.0,23.9,29.56,SSW,196,0.0,0.0,88,0.00,,---,0.00,0.00,VWS V14.00,2013-02-18 10:30:00,
2013-02-18 04:35:00,27.0,23.9,29.56,SSW,196,0.0,0.0,88,0.00,,---,0.00,0.00,VWS V14.00,2013-02-18 10:35:00,
2013-02-18 04:40:00,26.9,23.8,29.56,SSW,196,0.0,0.0,88,0.00,,---,0.00,0.00,VWS V14.00,2013-02-18 10:40:00,
2013-02-18 04:45:00,26.9,23.8,29.56,SSW,196,0.0,0.0,88,0.00,,---,0.00,0.00,VWS V14.00,2013-02-18 10:45:00,
2013-02-18 04:50:00,27.1,24.3,29.56,SSW,196,0.0,0.0,89,0.00,,---,0.00,0.00,VWS V14.00,2013-02-18 10:50:00,
2013-02-18 04:55:00,27.4,24.6,29.56,SSW,196,0.0,0.0,89,0.00,,---,0.00,0.00,VWS V14.00,2013-02-18 10:55:00,
2013-02-18 05:00:00,27.4,24.3,29.57,SSW,196,0.0,0.0,88,0.00,,---,0.00,0.00,VWS V14.00,2013-02-18 11:00:00,
2013-02-18 05:06:00,27.4,24.3,29.56,SSW,196,0.0,0.0,88,0.00,,---,0.00,0.00,VWS V14.00,2013-02-18 11:06:00,
2013-02-18 05:11:00,27.4,24.3,29.56,SSW,196,0.0,0.0,88,0.00,,---,0.00,0.00,VWS V14.00,2013-02-18 11:11:00,
2013-02-18 05:16:00,27.4,24.6,29.56,SSW,196,0.0,0.0,89,0.00,,---,0.00,0.00,VWS V14.00,2013-02-18 11:16:00,
2013-02-18 05:21:00,27.4,24.3,29.56,SSW,196,0.0,0.0,88,0.00,,---,0.00,0.00,VWS V14.00,2013-02-18 11:21:00,
2013-02-18 05:26:00,27.1,23.8,29.55,SSW,196,0.0,0.0,87,0.00,,---,0.00,0.00,VWS V14.00,2013-02-18 11:26:00,
2013-02-18 05:31:00,27.0,23.9,29.56,SSW,196,0.0,0.0,88,0.00,,---,0.00,0.00,VWS V14.00,2013-02-18 11:31:00,
2013-02-18 05:36:00,26.8,23.7,29.56,SSW,196,0.0,0.0,88,0.00,,---,0.00,0.00,VWS V14.00,2013-02-18 11:36:00,
2013-02-18 05:41:00,27.0,24.5,29.55,SSW,196,0.0,0.0,90,0.00,,---,0.00,0.00,VWS V14.00,2013-02-18 11:41:00,
2013-02-18 05:47:00,27.2,24.7,29.56,SSW,196,0.0,1.0,90,0.00,,---,0.00,0.00,VWS V14.00,2013-02-18 11:47:00,
2013-02-18 05:52:00,27.1,24.0,29.56,SSW,196,0.0,1.0,88,0.00,,---,0.00,0.00,VWS V14.00,2013-02-18 11:52:00,
2013-02-18 05:57:00,26.9,23.8,29.56,SSW,196,0.0,1.0,88,0.00,,---,0.00,0.00,VWS V14.00,2013-02-18 11:57:00,
2013-02-18 06:02:00,26.8,24.3,29.56,SSW,196,0.0,0.0,90,0.00,,---,0.00,0.00,VWS V14.00,2013-02-18 12:02:00,
2013-02-18 06:07:00,27.1,24.8,29.55,SSW,196,0.0,1.0,91,0.00,,---,0.00,0.00,VWS V14.00,2013-02-18 12:07:00,
2013-02-18 06:12:00,27.2,24.7,29.55,SSW,196,0.0,1.0,90,0.00,,---,0.00,0.00,VWS V14.00,2013-02-18 12:12:00,
2013-02-18 06:17:00,27.5,25.2,29.56,SSW,196,0.0,1.0,91,0.00,,---,0.00,0.00,VWS V14.00,2013-02-18 12:17:00,
2013-02-18 06:22:00,27.6,25.3,29.56,SSW,196,0.0,1.0,91,0.00,,---,0.00,0.00,VWS V14.00,2013-02-18 12:22:00,
2013-02-18 06:27:00,27.5,25.0,29.56,SSW,196,0.0,1.0,90,0.00,,---,0.00,0.00,VWS V14.00,2013-02-18 12:27:00,
2013-02-18 06:32:00,27.5,25.2,29.56,SSE,153,1.0,2.0,91,0.00,,---,0.00,0.00,VWS V14.00,2013-02-18 12:32:00,
2013-02-18 06:38:00,27.6,25.3,29.56,SSE,153,0.0,2.0,91,0.00,,---,0.00,0.00,VWS V14.00,2013-02-18 12:38:00,
2013-02-18 06:43:00,27.6,25.1,29.56,SSE,153,0.0,2.0,90,0.00,,---,0.00,0.00,VWS V14.00,2013-02-18 12:43:00,
2013-02-18 06:48:00,27.4,24.9,29.56,SSE,153,0.0,2.0,90,0.00,,---,0.00,0.00,VWS V14.00,2013-02-18 12:48:00,
2013-02-18 06:53:00,27.3,24.8,29.55,SSE,153,0.0,2.0,90,0.00,,---,0.00,0.00,VWS V14.00,2013-02-18 12:53:00,
2013-02-18 06:58:00,27.2,24.9,29.56,SSE,153,0.0,0.0,91,0.00,,---,0.00,0.00,VWS V14.00,2013-02-18 12:58:00,
2013-02-18 07:03:00,27.3,25.0,29.56,SSE,153,0.0,0.0,91,0.00,,---,0.00,0.00,VWS V14.00,2013-02-18 13:03:00,
2013-02-18 07:08:00,27.2,24.9,29.56,SSE,153,0.0,0.0,91,0.00,,---,0.00,0.00,VWS V14.00,2013-02-18 13:08:00,
2013-02-18 07:13:00,27.1,24.8,29.56,SSE,153,0.0,0.0,91,0.00,,---,0.00,0.00,VWS V14.00,2013-02-18 13:13:00,
2013-02-18 07:18:00,26.8,24.3,29.56,SSE,153,0.0,0.0,90,0.00,,---,0.00,5.00,VWS V14.00,2013-02-18 13:18:00,
2013-02-18 07:24:00,26.5,24.0,29.56,SSE,153,0.0,0.0,90,0.00,,---,0.00,9.00,VWS V14.00,2013-02-18 13:24:00,
2013-02-18 07:29:00,26.2,23.7,29.57,SSE,153,0.0,0.0,90,0.00,,---,0.00,11.00,VWS V14.00,2013-02-18 13:29:00,
2013-02-18 07:34:00,26.1,23.6,29.57,SSE,153,0.0,0.0,90,0.00,,---,0.00,11.00,VWS V14.00,2013-02-18 13:34:00,
2013-02-18 07:39:00,26.0,23.7,29.57,SSE,153,0.0,0.0,91,0.00,,---,0.00,14.00,VWS V14.00,2013-02-18 13:39:00,
2013-02-18 07:44:00,26.0,23.7,29.57,SSE,153,0.0,0.0,91,0.00,,---,0.00,18.00,VWS V14.00,2013-02-18 13:44:00,
2013-02-18 07:49:00,26.0,24.0,29.57,SSE,153,0.0,0.0,92,0.00,,---,0.00,21.00,VWS V14.00,2013-02-18 13:49:00,
2013-02-18 07:54:00,26.3,24.6,29.57,SSE,153,0.0,0.0,93,0.00,,---,0.00,21.00,VWS V14.00,2013-02-18 13:54:00,
2013-02-18 07:59:00,26.9,25.4,29.58,SSE,153,0.0,1.0,94,0.00,,---,0.00,21.00,VWS V14.00,2013-02-18 13:59:00,
2013-02-18 08:04:00,27.6,26.1,29.58,SSE,153,0.0,1.0,94,0.00,,---,0.00,23.00,VWS V14.00,2013-02-18 14:04:00,
2013-02-18 08:10:00,27.9,26.4,29.58,SSE,153,0.0,1.0,94,0.00,,---,0.00,18.00,VWS V14.00,2013-02-18 14:10:00,
2013-02-18 08:15:00,28.0,26.2,29.58,SSE,153,0.0,1.0,93,0.00,,---,0.00,19.00,VWS V14.00,2013-02-18 14:15:00,
2013-02-18 08:20:00,28.2,26.4,29.58,SSE,153,0.0,1.0,93,0.00,,---,0.00,21.00,VWS V14.00,2013-02-18 14:20:00,
2013-02-18 08:25:00,28.4,26.6,29.58,SSE,153,0.0,1.0,93,0.00,,---,0.00,23.00,VWS V14.00,2013-02-18 14:25:00,
2013-02-18 08:30:00,28.5,26.5,29.58,SSE,153,0.0,0.0,92,0.00,,---,0.00,26.00,VWS V14.00,2013-02-18 14:30:00,
2013-02-18 08:35:00,28.6,26.6,29.58,SSE,153,0.0,0.0,92,0.00,,---,0.00,32.00,VWS V14.00,2013-02-18 14:35:00,
2013-02-18 08:40:00,28.7,26.7,29.58,SSE,153,0.0,0.0,92,0.00,,---,0.00,33.00,VWS V14.00,2013-02-18 14:40:00,
2013-02-18 08:45:00,28.8,26.8,29.59,SSE,153,0.0,1.0,92,0.00,,---,0.00,37.00,VWS V14.00,2013-02-18 14:45:00,
2013-02-18 08:51:00,28.9,26.9,29.59,SSE,153,0.0,1.0,92,0.00,,---,0.00,39.00,VWS V14.00,2013-02-18 14:51:00,
2013-02-18 08:56:00,29.0,27.0,29.59,SSE,153,0.0,1.0,92,0.00,,---,0.00,42.00,VWS V14.00,2013-02-18 14:56:00,
2013-02-18 09:01:00,29.1,27.1,29.59,SSE,153,0.0,0.0,92,0.00,,---,0.00,44.00,VWS V14.00,2013-02-18 15:01:00,
2013-02-18 09:06:00,29.2,27.2,29.58,SSE,153,0.0,0.0,92,0.00,,---,0.00,65.00,VWS V14.00,2013-02-18 15:06:00,
2013-02-18 09:11:00,29.4,27.4,29.58,SSE,153,0.0,1.0,92,0.00,,---,0.00,74.00,VWS V14.00,2013-02-18 15:11:00,
2013-02-18 09:16:00,29.6,27.6,29.58,SSE,153,0.0,1.0,92,0.00,,---,0.00,97.00,VWS V14.00,2013-02-18 15:16:00,
2013-02-18 09:21:00,29.9,27.6,29.58,SSE,153,0.0,1.0,91,0.00,,---,0.00,128.00,VWS V14.00,2013-02-18 15:21:00,
2013-02-18 09:26:00,30.1,27.8,29.58,SSE,153,0.0,2.0,91,0.00,,---,0.00,121.00,VWS V14.00,2013-02-18 15:26:00,
2013-02-18 09:31:00,30.5,28.2,29.58,SSE,153,1.0,2.0,91,0.00,,---,0.00,139.00,VWS V14.00,2013-02-18 15:31:00,
2013-02-18 09:36:00,30.8,28.2,29.59,SSE,153,0.0,2.0,90,0.00,,---,0.00,105.00,VWS V14.00,2013-02-18 15:36:00,
2013-02-18 09:42:00,31.0,28.4,29.59,SSE,153,0.0,2.0,90,0.00,,---,0.00,98.00,VWS V14.00,2013-02-18 15:42:00,
2013-02-18 09:47:00,31.2,28.3,29.59,SSE,153,0.0,2.0,89,0.00,,---,0.00,79.00,VWS V14.00,2013-02-18 15:47:00,
2013-02-18 09:52:00,31.4,28.5,29.59,SSE,154,0.0,2.0,89,0.00,,---,0.00,93.00,VWS V14.00,2013-02-18 15:52:00,
2013-02-18 09:57:00,31.6,28.7,29.59,SSE,153,0.0,2.0,89,0.00,,---,0.00,79.00,VWS V14.00,2013-02-18 15:57:00,
2013-02-18 10:02:00,31.9,29.3,29.59,SSW,203,0.0,2.0,90,0.00,,---,0.00,65.00,VWS V14.00,2013-02-18 16:02:00,
2013-02-18 10:07:00,32.1,29.5,29.58,SW,215,0.0,2.0,90,0.00,,---,0.00,65.00,VWS V14.00,2013-02-18 16:07:00,
2013-02-18 10:12:00,32.4,29.8,29.58,WNW,282,0.0,3.0,90,0.00,,---,0.00,62.00,VWS V14.00,2013-02-18 16:12:00,
2013-02-18 10:17:00,32.5,30.2,29.58,WNW,298,0.0,3.0,91,0.00,,---,0.00,56.00,VWS V14.00,2013-02-18 16:17:00,
2013-02-18 10:22:00,32.7,30.4,29.58,WNW,290,0.0,7.0,91,0.00,,---,0.00,51.00,VWS V14.00,2013-02-18 16:22:00,
2013-02-18 10:27:00,32.8,30.5,29.59,South,182,0.0,7.0,91,0.00,,---,0.00,47.00,VWS V14.00,2013-02-18 16:27:00,
2013-02-18 10:32:00,32.8,30.5,29.59,West,279,3.0,6.0,91,0.00,,---,0.00,46.00,VWS V14.00,2013-02-18 16:32:00,
2013-02-18 10:37:00,32.9,30.6,29.59,NW,317,4.0,12.0,91,0.00,,---,0.00,40.00,VWS V14.00,2013-02-18 16:37:00,
2013-02-18 10:43:00,32.9,30.6,29.60,NW,316,5.0,12.0,91,0.00,,---,0.01,62.00,VWS V14.00,2013-02-18 16:43:00,
2013-02-18 10:48:00,32.8,30.2,29.60,WNW,289,4.0,12.0,90,0.00,,---,0.01,93.00,VWS V14.00,2013-02-18 16:48:00,
2013-02-18 10:53:00,32.2,29.3,29.60,NW,306,4.0,12.0,89,0.00,,---,0.01,72.00,VWS V14.00,2013-02-18 16:53:00,
2013-02-18 10:58:00,31.8,28.9,29.60,NW,312,2.0,4.0,89,0.00,,---,0.01,74.00,VWS V14.00,2013-02-18 16:58:00,
2013-02-18 11:03:00,31.4,28.0,29.60,WNW,298,5.0,12.0,87,0.00,,---,0.01,116.00,VWS V14.00,2013-02-18 17:03:00,
2013-02-18 11:08:00,30.7,26.7,29.61,NW,317,6.0,12.0,85,0.00,,---,0.01,135.00,VWS V14.00,2013-02-18 17:08:00,
2013-02-18 11:13:00,29.8,25.6,29.61,NW,317,5.0,17.0,84,0.00,,---,0.01,148.00,VWS V14.00,2013-02-18 17:13:00,
2013-02-18 11:18:00,29.3,24.8,29.62,WNW,300,10.0,19.0,83,0.00,,---,0.01,142.00,VWS V14.00,2013-02-18 17:18:00,
2013-02-18 11:23:00,29.0,24.5,29.62,WNW,284,6.0,19.0,83,0.00,,---,0.01,137.00,VWS V14.00,2013-02-18 17:23:00,
2013-02-18 11:28:00,28.9,24.7,29.62,NW,311,11.0,12.0,84,0.00,,---,0.01,135.00,VWS V14.00,2013-02-18 17:28:00,
2013-02-18 11:33:00,28.5,23.7,29.62,NW,304,13.0,17.0,82,0.00,,---,0.01,169.00,VWS V14.00,2013-02-18 17:33:00,
2013-02-18 11:38:00,28.2,23.7,29.61,NNW,339,5.0,17.0,83,0.00,,---,0.01,172.00,VWS V14.00,2013-02-18 17:38:00,
2013-02-18 11:44:00,28.1,23.6,29.62,NW,315,9.0,17.0,83,0.00,,---,0.01,192.00,VWS V14.00,2013-02-18 17:44:00,
2013-02-18 11:49:00,28.0,23.2,29.62,NNW,336,8.0,17.0,82,0.00,,---,0.01,186.00,VWS V14.00,2013-02-18 17:49:00,
2013-02-18 11:54:00,27.8,23.0,29.62,NW,313,10.0,17.0,82,0.00,,---,0.01,176.00,VWS V14.00,2013-02-18 17:54:00,
2013-02-18 11:59:00,27.8,23.0,29.62,NW,318,9.0,11.0,82,0.00,,---,0.01,169.00,VWS V14.00,2013-02-18 17:59:00,
2013-02-18 12:04:00,27.8,23.0,29.62,NW,312,5.0,12.0,82,0.00,,---,0.01,160.00,VWS V14.00,2013-02-18 18:04:00,
2013-02-18 12:09:00,27.5,22.7,29.62,NW,317,8.0,12.0,82,0.00,,---,0.01,200.00,VWS V14.00,2013-02-18 18:09:00,
2013-02-18 12:14:00,27.3,22.2,29.62,West,281,3.0,15.0,81,0.00,,---,0.01,221.00,VWS V14.00,2013-02-18 18:14:00,
2013-02-18 12:19:00,26.8,21.2,29.62,NW,307,14.0,22.0,79,0.00,,---,0.01,206.00,VWS V14.00,2013-02-18 18:19:00,
2013-02-18 12:24:00,26.3,21.0,29.62,WNW,303,6.0,23.0,80,0.00,,---,0.01,213.00,VWS V14.00,2013-02-18 18:24:00,
2013-02-18 12:29:00,26.3,21.0,29.62,NW,304,5.0,14.0,80,0.00,,---,0.01,206.00,VWS V14.00,2013-02-18 18:29:00,
2013-02-18 12:35:00,26.3,21.0,29.62,WNW,301,5.0,14.0,80,0.00,,---,0.01,186.00,VWS V14.00,2013-02-18 18:35:00,
2013-02-18 12:40:00,26.1,20.5,29.62,NW,315,9.0,15.0,79,0.00,,---,0.01,220.00,VWS V14.00,2013-02-18 18:40:00,
2013-02-18 12:45:00,25.5,19.9,29.62,NW,304,8.0,18.0,79,0.00,,---,0.01,223.00,VWS V14.00,2013-02-18 18:45:00,
2013-02-18 12:50:00,25.2,19.6,29.62,NW,323,13.0,18.0,79,0.00,,---,0.01,250.00,VWS V14.00,2013-02-18 18:50:00,
2013-02-18 12:55:00,24.9,19.0,29.62,WNW,285,2.0,21.0,78,0.00,,---,0.01,271.00,VWS V14.00,2013-02-18 18:55:00,
2013-02-18 13:00:00,24.6,18.7,29.62,NNW,327,2.0,16.0,78,0.00,,---,0.01,281.00,VWS V14.00,2013-02-18 19:00:00,
2013-02-18 13:05:00,24.4,18.8,29.63,West,264,9.0,17.0,79,0.00,,---,0.01,302.00,VWS V14.00,2013-02-18 19:05:00,
2013-02-18 13:10:00,24.3,18.1,29.63,NW,308,3.0,18.0,77,0.00,,---,0.01,251.00,VWS V14.00,2013-02-18 19:10:00,
2013-02-18 13:15:00,24.0,17.9,29.64,WNW,285,2.0,18.0,77,0.00,,---,0.01,294.00,VWS V14.00,2013-02-18 19:15:00,
2013-02-18 13:20:00,23.5,17.4,29.64,NW,314,8.0,18.0,77,0.00,,---,0.01,276.00,VWS V14.00,2013-02-18 19:20:00,
2013-02-18 13:25:00,22.7,16.6,29.64,NNW,343,10.0,20.0,77,0.00,,---,0.01,271.00,VWS V14.00,2013-02-18 19:25:00,
2013-02-18 13:30:00,22.6,17.1,29.64,WNW,288,3.0,17.0,79,0.00,,---,0.01,250.00,VWS V14.00,2013-02-18 19:30:00,
2013-02-18 13:35:00,22.6,16.8,29.64,WSW,245,0.0,17.0,78,0.00,,---,0.01,251.00,VWS V14.00,2013-02-18 19:35:00,
2013-02-18 13:40:00,22.5,16.4,29.65,NW,322,13.0,20.0,77,0.00,,---,0.01,267.00,VWS V14.00,2013-02-18 19:40:00,
2013-02-18 13:45:00,22.0,15.6,29.65,NW,309,3.0,20.0,76,0.00,,---,0.01,241.00,VWS V14.00,2013-02-18 19:45:00,
2013-02-18 13:50:00,21.7,15.3,29.65,NW,317,7.0,20.0,76,0.00,,---,0.01,315.00,VWS V14.00,2013-02-18 19:50:00,
2013-02-18 13:55:00,21.5,14.8,29.66,NW,315,7.0,20.0,75,0.00,,---,0.01,272.00,VWS V14.00,2013-02-18 19:55:00,
2013-02-18 14:01:00,21.3,14.9,29.66,NW,317,5.0,14.0,76,0.00,,---,0.01,316.00,VWS V14.00,2013-02-18 20:01:00,
2013-02-18 14:06:00,21.3,14.6,29.66,NW,312,3.0,14.0,75,0.00,,---,0.01,357.00,VWS V14.00,2013-02-18 20:06:00,
2013-02-18 14:11:00,21.2,14.2,29.66,NW,319,11.0,14.0,74,0.00,,---,0.01,323.00,VWS V14.00,2013-02-18 20:11:00,
2013-02-18 14:16:00,20.9,14.2,29.67,NNW,346,4.0,15.0,75,0.00,,---,0.01,260.00,VWS V14.00,2013-02-18 20:16:00,
2013-02-18 14:21:00,20.6,13.9,29.67,West,279,1.0,17.0,75,0.00,,---,0.01,301.00,VWS V14.00,2013-02-18 20:21:00,
2013-02-18 14:26:00,20.8,14.4,29.67,NNW,331,12.0,17.0,76,0.00,,---,0.01,258.00,VWS V14.00,2013-02-18 20:26:00,
2013-02-18 14:31:00,20.4,13.8,29.67,NE,50,1.0,14.0,75,0.00,,---,0.01,197.00,VWS V14.00,2013-02-18 20:31:00,
2013-02-18 14:36:00,20.2,13.9,29.68,NW,316,6.0,14.0,76,0.00,,---,0.01,200.00,VWS V14.00,2013-02-18 20:36:00,
2013-02-18 14:41:00,19.9,13.6,29.68,WNW,293,2.0,14.0,76,0.00,,---,0.01,269.00,VWS V14.00,2013-02-18 20:41:00,
2013-02-18 14:46:00,19.8,13.5,29.68,WNW,303,6.0,18.0,76,0.00,,---,0.01,299.00,VWS V14.00,2013-02-18 20:46:00,
2013-02-18 14:51:00,19.9,13.6,29.69,SW,221,6.0,18.0,76,0.00,,---,0.01,192.00,VWS V14.00,2013-02-18 20:51:00,
2013-02-18 14:56:00,19.7,13.1,29.69,NW,305,5.0,18.0,75,0.00,,---,0.01,160.00,VWS V14.00,2013-02-18 20:56:00,
2013-02-18 15:01:00,19.5,13.2,29.69,WNW,294,5.0,10.0,76,0.00,,---,0.01,174.00,VWS V14.00,2013-02-18 21:01:00,
2013-02-18 15:06:00,19.3,12.7,29.70,NW,313,2.0,12.0,75,0.00,,---,0.01,144.00,VWS V14.00,2013-02-18 21:06:00,
2013-02-18 15:11:00,18.9,12.3,29.70,NW,321,5.0,17.0,75,0.00,,---,0.01,146.00,VWS V14.00,2013-02-18 21:11:00,
2013-02-18 15:16:00,18.5,11.9,29.71,North,350,3.0,17.0,75,0.00,,---,0.01,220.00,VWS V14.00,2013-02-18 21:16:00,
2013-02-18 15:22:00,18.3,11.7,29.71,NW,319,3.0,17.0,75,0.00,,---,0.01,185.00,VWS V14.00,2013-02-18 21:22:00,
2013-02-18 15:27:00,18.1,11.5,29.71,NW,309,7.0,17.0,75,0.00,,---,0.01,88.00,VWS V14.00,2013-02-18 21:27:00,
2013-02-18 15:32:00,17.8,11.5,29.72,NNW,329,3.0,12.0,76,0.00,,---,0.01,70.00,VWS V14.00,2013-02-18 21:32:00,
2013-02-18 15:37:00,17.4,11.1,29.72,WNW,301,5.0,14.0,76,0.00,,---,0.01,120.00,VWS V14.00,2013-02-18 21:37:00,
2013-02-18 15:42:00,17.2,10.9,29.72,WSW,239,4.0,14.0,76,0.00,,---,0.01,160.00,VWS V14.00,2013-02-18 21:42:00,
2013-02-18 15:47:00,17.1,10.6,29.72,WNW,282,2.0,15.0,75,0.00,,---,0.01,176.00,VWS V14.00,2013-02-18 21:47:00,
2013-02-18 15:52:00,17.2,10.9,29.72,NNW,329,3.0,15.0,76,0.00,,---,0.01,114.00,VWS V14.00,2013-02-18 21:52:00,
2013-02-18 15:57:00,17.1,10.9,29.73,NNW,331,13.0,15.0,76,0.00,,---,0.01,93.00,VWS V14.00,2013-02-18 21:57:00,
2013-02-18 16:02:00,16.9,10.7,29.73,WNW,299,1.0,13.0,76,0.00,,---,0.01,77.00,VWS V14.00,2013-02-18 22:02:00,
2013-02-18 16:08:00,16.8,10.6,29.73,WNW,303,5.0,16.0,76,0.00,,---,0.01,77.00,VWS V14.00,2013-02-18 22:08:00,
2013-02-18 16:13:00,16.5,10.0,29.73,NNW,344,2.0,16.0,75,0.00,,---,0.01,69.00,VWS V14.00,2013-02-18 22:13:00,
2013-02-18 16:18:00,16.3,10.1,29.73,NW,322,4.0,20.0,76,0.00,,---,0.01,67.00,VWS V14.00,2013-02-18 22:18:00,
2013-02-18 16:23:00,16.3,10.1,29.74,NW,315,11.0,20.0,76,0.00,,---,0.01,69.00,VWS V14.00,2013-02-18 22:23:00,
2013-02-18 16:28:00,16.2,9.7,29.74,NW,304,11.0,11.0,75,0.00,,---,0.01,60.00,VWS V14.00,2013-02-18 22:28:00,
2013-02-18 16:33:00,16.2,10.0,29.74,WSW,250,5.0,14.0,76,0.00,,---,0.01,53.00,VWS V14.00,2013-02-18 22:33:00,
2013-02-18 16:38:00,16.1,9.9,29.73,NW,315,10.0,14.0,76,0.00,,---,0.01,46.00,VWS V14.00,2013-02-18 22:38:00,
2013-02-18 16:43:00,15.9,9.7,29.74,WNW,287,7.0,16.0,76,0.00,,---,0.01,33.00,VWS V14.00,2013-02-18 22:43:00,
2013-02-18 16:48:00,15.7,9.2,29.75,WNW,299,6.0,19.0,75,0.00,,---,0.01,30.00,VWS V14.00,2013-02-18 22:48:00,
2013-02-18 16:53:00,15.4,8.9,29.75,WNW,302,5.0,19.0,75,0.00,,---,0.01,25.00,VWS V14.00,2013-02-18 22:53:00,
2013-02-18 16:58:00,15.1,8.6,29.74,NW,309,10.0,11.0,75,0.00,,---,0.01,23.00,VWS V14.00,2013-02-18 22:58:00,
2013-02-18 17:03:00,14.9,8.4,29.75,West,263,9.0,15.0,75,0.00,,---,0.01,19.00,VWS V14.00,2013-02-18 23:03:00,
2013-02-18 17:08:00,14.7,8.2,29.75,NW,324,11.0,16.0,75,0.00,,---,0.01,16.00,VWS V14.00,2013-02-18 23:08:00,
2013-02-18 17:14:00,14.6,8.1,29.75,NNW,338,7.0,20.0,75,0.00,,---,0.01,12.00,VWS V14.00,2013-02-18 23:14:00,
2013-02-18 17:19:00,14.4,7.9,29.75,NW,319,5.0,20.0,75,0.00,,---,0.01,11.00,VWS V14.00,2013-02-18 23:19:00,
2013-02-18 17:24:00,14.4,8.2,29.75,NNW,329,6.0,20.0,76,0.00,,---,0.01,11.00,VWS V14.00,2013-02-18 23:24:00,
2013-02-18 17:29:00,14.4,8.5,29.75,NW,306,0.0,7.0,77,0.00,,---,0.01,9.00,VWS V14.00,2013-02-18 23:29:00,
2013-02-18 17:34:00,14.3,8.4,29.75,NW,321,4.0,17.0,77,0.00,,---,0.01,7.00,VWS V14.00,2013-02-18 23:34:00,
2013-02-18 17:39:00,14.1,7.9,29.75,NW,304,16.0,19.0,76,0.00,,---,0.01,0.00,VWS V14.00,2013-02-18 23:39:00,
2013-02-18 17:44:00,13.8,7.4,29.75,NW,312,15.0,19.0,75,0.00,,---,0.01,0.00,VWS V14.00,2013-02-18 23:44:00,
2013-02-18 17:49:00,13.6,7.5,29.75,WNW,297,3.0,19.0,76,0.00,,---,0.01,0.00,VWS V14.00,2013-02-18 23:49:00,
2013-02-18 17:54:00,13.6,7.7,29.76,WSW,246,10.0,19.0,77,0.00,,---,0.01,0.00,VWS V14.00,2013-02-18 23:54:00,
2013-02-18 17:59:00,13.3,7.4,29.76,WNW,298,9.0,18.0,77,0.00,,---,0.01,0.00,VWS V14.00,2013-02-18 23:59:00,
2013-02-18 18:04:00,13.1,7.5,29.76,NW,306,10.0,18.0,78,0.00,,---,0.01,0.00,VWS V14.00,2013-02-19 00:04:00,
2013-02-18 18:09:00,13.1,7.5,29.76,WNW,294,7.0,18.0,78,0.00,,---,0.01,0.00,VWS V14.00,2013-02-19 00:09:00,
2013-02-18 18:14:00,12.8,7.0,29.76,NNW,336,7.0,18.0,77,0.00,,---,0.01,0.00,VWS V14.00,2013-02-19 00:14:00,
2013-02-18 18:19:00,12.5,6.7,29.77,WNW,299,6.0,18.0,77,0.00,,---,0.01,0.00,VWS V14.00,2013-02-19 00:19:00,
2013-02-18 18:25:00,12.3,6.2,29.77,WNW,300,12.0,21.0,76,0.00,,---,0.01,0.00,VWS V14.00,2013-02-19 00:25:00,
2013-02-18 18:30:00,12.1,6.0,29.77,NW,309,5.0,15.0,76,0.00,,---,0.01,0.00,VWS V14.00,2013-02-19 00:30:00,
2013-02-18 18:35:00,11.9,5.8,29.77,WNW,286,3.0,21.0,76,0.00,,---,0.01,0.00,VWS V14.00,2013-02-19 00:35:00,
2013-02-18 18:40:00,11.7,5.6,29.78,WNW,293,13.0,21.0,76,0.00,,---,0.01,0.00,VWS V14.00,2013-02-19 00:40:00,
2013-02-18 18:45:00,11.6,5.5,29.78,NW,306,5.0,21.0,76,0.00,,---,0.01,0.00,VWS V14.00,2013-02-19 00:45:00,
2013-02-18 18:50:00,11.5,5.4,29.78,NW,317,11.0,21.0,76,0.00,,---,0.01,0.00,VWS V14.00,2013-02-19 00:50:00,
2013-02-18 18:55:00,11.3,5.2,29.79,NW,305,4.0,21.0,76,0.00,,---,0.01,0.00,VWS V14.00,2013-02-19 00:55:00,
2013-02-18 19:00:00,11.2,5.1,29.79,NW,311,8.0,18.0,76,0.00,,---,0.01,0.00,VWS V14.00,2013-02-19 01:00:00,
2013-02-18 19:05:00,11.0,4.6,29.79,NNW,340,15.0,20.0,75,0.00,,---,0.01,0.00,VWS V14.00,2013-02-19 01:05:00,
2013-02-18 19:10:00,10.7,4.6,29.80,NW,309,8.0,20.0,76,0.00,,---,0.01,0.00,VWS V14.00,2013-02-19 01:10:00,
2013-02-18 19:15:00,10.5,4.2,29.80,NW,313,0.0,20.0,75,0.00,,---,0.01,0.00,VWS V14.00,2013-02-19 01:15:00,
2013-02-18 19:21:00,10.2,4.2,29.80,NW,309,10.0,20.0,76,0.00,,---,0.01,0.00,VWS V14.00,2013-02-19 01:21:00,
2013-02-18 19:26:00,9.9,3.9,29.81,WNW,293,4.0,20.0,76,0.00,,---,0.01,0.00,VWS V14.00,2013-02-19 01:26:00,
2013-02-18 19:31:00,9.8,3.8,29.81,WNW,298,14.0,18.0,76,0.00,,---,0.01,0.00,VWS V14.00,2013-02-19 01:31:00,
2013-02-18 19:36:00,9.7,4.0,29.81,NW,310,4.0,18.0,77,0.00,,---,0.01,0.00,VWS V14.00,2013-02-19 01:36:00,
2013-02-18 19:41:00,9.6,3.8,29.81,WNW,284,4.0,18.0,77,0.00,,---,0.01,0.00,VWS V14.00,2013-02-19 01:41:00,
2013-02-18 19:46:00,9.4,3.7,29.81,NNW,340,7.0,18.0,77,0.00,,---,0.01,0.00,VWS V14.00,2013-02-19 01:46:00,
2013-02-18 19:51:00,9.2,3.7,29.81,WNW,294,9.0,18.0,78,0.00,,---,0.01,0.00,VWS V14.00,2013-02-19 01:51:00,
2013-02-18 19:56:00,9.1,3.7,29.81,West,266,0.0,18.0,78,0.00,,---,0.01,0.00,VWS V14.00,2013-02-19 01:56:00,
2013-02-18 20:01:00,9.0,3.5,29.82,NW,318,5.0,11.0,78,0.00,,---,0.01,0.00,VWS V14.00,2013-02-19 02:01:00,
2013-02-18 20:07:00,8.9,3.7,29.82,West,275,0.0,14.0,79,0.00,,---,0.01,0.00,VWS V14.00,2013-02-19 02:07:00,
2013-02-18 20:12:00,8.8,3.6,29.82,NNW,345,0.0,14.0,79,0.00,,---,0.01,0.00,VWS V14.00,2013-02-19 02:12:00,
2013-02-18 20:17:00,8.8,3.6,29.81,NW,307,0.0,14.0,79,0.00,,---,0.01,0.00,VWS V14.00,2013-02-19 02:17:00,
2013-02-18 20:22:00,8.7,3.5,29.82,NW,305,11.0,14.0,79,0.00,,---,0.01,0.00,VWS V14.00,2013-02-19 02:22:00,
2013-02-18 20:27:00,8.9,3.5,29.82,NNW,337,9.0,17.0,78,0.00,,---,0.01,0.00,VWS V14.00,2013-02-19 02:27:00,
2013-02-18 20:32:00,8.9,3.7,29.82,NW,324,14.0,18.0,79,0.00,,---,0.01,0.00,VWS V14.00,2013-02-19 02:32:00,
2013-02-18 20:37:00,8.6,3.2,29.81,WNW,290,3.0,22.0,78,0.00,,---,0.01,0.00,VWS V14.00,2013-02-19 02:37:00,
2013-02-18 20:42:00,8.4,3.0,29.82,NW,317,7.0,22.0,78,0.00,,---,0.01,0.00,VWS V14.00,2013-02-19 02:42:00,
2013-02-18 20:47:00,8.3,2.9,29.82,NNW,327,5.0,22.0,78,0.00,,---,0.01,0.00,VWS V14.00,2013-02-19 02:47:00,
2013-02-18 20:52:00,8.3,3.1,29.82,WNW,291,2.0,22.0,79,0.00,,---,0.01,0.00,VWS V14.00,2013-02-19 02:52:00,
2013-02-18 20:57:00,8.3,3.1,29.82,WNW,285,2.0,22.0,79,0.00,,---,0.01,0.00,VWS V14.00,2013-02-19 02:57:00,
2013-02-18 21:03:00,8.2,2.8,29.82,NW,305,7.0,11.0,78,0.00,,---,0.01,0.00,VWS V14.00,2013-02-19 03:03:00,
2013-02-18 21:08:00,8.1,2.7,29.83,NW,304,5.0,13.0,78,0.00,,---,0.01,0.00,VWS V14.00,2013-02-19 03:08:00,
2013-02-18 21:13:00,8.0,2.8,29.83,NW,325,7.0,14.0,79,0.00,,---,0.01,0.00,VWS V14.00,2013-02-19 03:13:00,
2013-02-18 21:18:00,7.8,2.7,29.83,NW,325,4.0,17.0,79,0.00,,---,0.01,0.00,VWS V14.00,2013-02-19 03:18:00,
2013-02-18 21:23:00,7.8,2.9,29.83,NNW,339,5.0,17.0,80,0.00,,---,0.01,0.00,VWS V14.00,2013-02-19 03:23:00,
2013-02-18 21:28:00,7.7,3.1,29.83,NW,317,5.0,5.0,81,0.00,,---,0.01,0.00,VWS V14.00,2013-02-19 03:28:00,
2013-02-18 21:33:00,7.6,3.0,29.84,NW,317,8.0,12.0,81,0.00,,---,0.01,0.00,VWS V14.00,2013-02-19 03:33:00,
2013-02-18 21:38:00,7.5,3.2,29.84,NW,310,13.0,13.0,82,0.00,,---,0.01,0.00,VWS V14.00,2013-02-19 03:38:00,
2013-02-18 21:43:00,7.3,3.2,29.84,NNW,331,5.0,14.0,83,0.00,,---,0.01,0.00,VWS V14.00,2013-02-19 03:43:00,
2013-02-18 21:48:00,7.1,3.3,29.84,NW,306,9.0,14.0,84,0.00,,---,0.01,0.00,VWS V14.00,2013-02-19 03:48:00,
2013-02-18 21:53:00,6.9,3.1,29.83,NW,319,13.0,15.0,84,0.00,,---,0.01,0.00,VWS V14.00,2013-02-19 03:53:00,
2013-02-18 21:58:00,6.9,3.1,29.84,NW,306,6.0,18.0,84,0.00,,---,0.01,0.00,VWS V14.00,2013-02-19 03:58:00,
2013-02-18 22:03:00,6.8,3.0,29.84,NW,309,6.0,18.0,84,0.00,,---,0.01,0.00,VWS V14.00,2013-02-19 04:03:00,
2013-02-18 22:08:00,6.8,3.3,29.83,WNW,288,5.0,18.0,85,0.00,,---,0.01,0.00,VWS V14.00,2013-02-19 04:08:00,
2013-02-18 22:13:00,6.7,2.9,29.84,NW,325,11.0,18.0,84,0.00,,---,0.01,0.00,VWS V14.00,2013-02-19 04:13:00,
2013-02-18 22:18:00,6.6,2.8,29.84,WNW,301,3.0,18.0,84,0.00,,---,0.01,0.00,VWS V14.00,2013-02-19 04:18:00,
2013-02-18 22:23:00,6.5,2.7,29.84,NW,314,9.0,18.0,84,0.00,,---,0.01,0.00,VWS V14.00,2013-02-19 04:23:00,
2013-02-18 22:29:00,6.4,2.3,29.84,NW,306,10.0,15.0,83,0.00,,---,0.01,0.00,VWS V14.00,2013-02-19 04:29:00,
2013-02-18 22:34:00,6.3,2.2,29.84,NW,326,11.0,16.0,83,0.00,,---,0.01,0.00,VWS V14.00,2013-02-19 04:34:00,
2013-02-18 22:39:00,6.2,2.2,29.84,WNW,293,7.0,17.0,83,0.00,,---,0.01,0.00,VWS V14.00,2013-02-19 04:39:00,
2013-02-18 22:44:00,6.1,2.1,29.84,NW,309,10.0,21.0,83,0.00,,---,0.01,0.00,VWS V14.00,2013-02-19 04:44:00,
2013-02-18 22:49:00,6.0,2.0,29.84,North,355,2.0,21.0,83,0.00,,---,0.01,0.00,VWS V14.00,2013-02-19 04:49:00,
2013-02-18 22:54:00,5.9,1.9,29.85,WNW,301,7.0,21.0,83,0.00,,---,0.01,0.00,VWS V14.00,2013-02-19 04:54:00,
2013-02-18 22:59:00,5.7,1.7,29.85,NW,313,5.0,12.0,83,0.00,,---,0.01,0.00,VWS V14.00,2013-02-19 04:59:00,
2013-02-18 23:00:00,5.7,1.4,29.85,WNW,297,7.0,12.0,82,0.00,,---,0.01,0.00,VWS V14.00,2013-02-19 05:00:00,
2013-02-18 23:01:00,5.7,1.4,29.85,NW,304,4.0,12.0,82,0.00,,---,0.01,0.00,VWS V14.00,2013-02-19 05:01:00,
2013-02-18 23:06:00,5.5,1.2,29.85,NW,309,6.0,17.0,82,0.00,,---,0.01,0.00,VWS V14.00,2013-02-19 05:06:00,
2013-02-18 23:11:00,5.5,1.5,29.85,NW,317,12.0,17.0,83,0.00,,---,0.01,0.00,VWS V14.00,2013-02-19 05:11:00,
2013-02-18 23:16:00,5.5,1.5,29.85,NNW,327,12.0,19.0,83,0.00,,---,0.01,0.00,VWS V14.00,2013-02-19 05:16:00,
2013-02-18 23:21:00,5.5,1.5,29.85,NW,317,13.0,19.0,83,0.00,,---,0.01,0.00,VWS V14.00,2013-02-19 05:21:00,
2013-02-18 23:26:00,5.5,1.5,29.85,NW,312,8.0,19.0,83,0.00,,---,0.01,0.00,VWS V14.00,2013-02-19 05:26:00,
2013-02-18 23:32:00,5.4,1.4,29.86,WNW,298,5.0,13.0,83,0.00,,---,0.01,0.00,VWS V14.00,2013-02-19 05:32:00,
2013-02-18 23:37:00,5.3,1.5,29.86,NW,316,6.0,18.0,84,0.00,,---,0.01,0.00,VWS V14.00,2013-02-19 05:37:00,
2013-02-18 23:42:00,5.3,1.5,29.86,NW,313,5.0,18.0,84,0.00,,---,0.01,0.00,VWS V14.00,2013-02-19 05:42:00,
2013-02-18 23:47:00,5.3,1.3,29.86,WNW,294,12.0,18.0,83,0.00,,---,0.01,0.00,VWS V14.00,2013-02-19 05:47:00,
2013-02-18 23:52:00,5.4,1.1,29.86,West,279,6.0,18.0,82,0.00,,---,0.01,0.00,VWS V14.00,2013-02-19 05:52:00,
2013-02-18 23:57:00,5.4,1.1,29.87,NNW,338,14.0,19.0,82,0.00,,---,0.01,0.00,VWS V14.00,2013-02-19 05:57:00,